Retour au catalogue

COSMOS 2251 DEB

ActifLEO
NORAD 35956·DEBRIS·🇷🇺 Russia

Lancé Jun 16, 1993 depuis Plesetsk Cosmodrome

Loading…

Prochains Passages (prochaines 24 heures)

TLE

FraisSource: Space-Track

Époque: Sep 14, 2026, 01:50 UTC

1 35956U 93036AUW 26257.07705254  .00005106  00000-0  22064-2 0  9999
2 35956  74.0741 128.8273 0225117 139.7140 222.0929 14.11961203657447

Suivez COSMOS 2251 DEB en temps réel avec AllMySat

Download on the App Store